EW9774 Weather Reports


time (UTC)temp
F
wind
direction
speed
knots
gust
knots
rain 1hr
in
rain 24hr
in
rain mn
in
humidity
%
barometer
mb
20210723161527 68 180 1.7 0.0 0.00 0.00 0.00 61 1024.1
20210723160022 67 180 1.7 0.0 0.00 0.00 0.00 62 1024.1
20210723154534 67 180 1.7 0.0 0.00 0.00 0.00 63 1024.1
20210723153025 65 180 0.9 0.0 0.00 0.00 0.00 66 1024.1
20210723151527 63 180 0.9 0.0 0.00 0.00 0.00 68 1024.1
20210723150025 62 180 0.9 0.0 0.00 0.00 0.00 70 1024.1
20210723144530 61 180 0.0 0.0 0.00 0.00 0.00 73 1024.1
20210723143025 58 180 0.9 0.0 0.00 0.00 0.00 78 1024.1
20210723141525 57 180 1.7 0.0 0.00 0.00 0.00 82 1024.1
20210723140029 55 180 1.7 0.0 0.00 0.00 0.00 85 1023.8
20210723134607 53 180 1.7 0.0 0.00 0.00 0.00 88 1023.8
20210723133027 52 181 0.9 0.0 0.00 0.00 0.00 89 1023.8
20210723131531 51 201 1.7 0.0 0.00 0.00 0.00 88 1023.4
20210723130027 52 202 1.7 0.0 0.00 0.00 0.00 86 1023.4
20210723124537 52 191 1.7 0.0 0.00 0.00 0.00 85 1023.4
20210723123027 53 202 1.7 0.0 0.00 0.00 0.00 85 1023.1
20210723121531 53 192 2.6 0.0 0.00 0.00 0.00 85 1023.1
20210723120030 53 181 1.7 0.0 0.00 0.00 0.00 85 1022.7
20210723114528 53 200 1.7 0.0 0.00 0.00 0.00 85 1022.7
20210723113024 53 190 1.7 0.0 0.00 0.00 0.00 85 1022.7
20210723111527 52 187 0.9 0.0 0.00 0.00 0.00 85 1022.7
20210723110027 53 182 0.9 0.0 0.00 0.00 0.00 82 1022.4
20210723104528 54 180 1.7 0.0 0.00 0.00 0.00 80 1022.4
20210723103024 54 180 1.7 0.0 0.00 0.00 0.00 81 1022.4
20210723101527 53 180 0.9 0.0 0.00 0.00 0.00 80 1022.4
20210723100026 54 180 0.9 0.0 0.00 0.00 0.00 78 1022.4
20210723094526 55 180 0.9 0.0 0.00 0.00 0.00 76 1022.4
20210723093028 55 180 1.7 0.0 0.00 0.00 0.00 75 1022.0
20210723091529 56 180 0.0 0.0 0.00 0.00 0.00 71 1022.0
20210723090027 58 180 0.0 0.0 0.00 0.00 0.00 68 1022.0
20210723084530 60 180 0.9 0.0 0.00 0.00 0.00 63 1021.7
20210723083039 61 180 3.5 0.0 0.00 0.00 0.00 62 1021.7
20210723081528 60 180 5.2 0.0 0.00 0.00 0.00 63 1021.7
20210723080027 60 180 5.2 0.0 0.00 0.00 0.00 64 1021.7
20210723074530 60 180 4.3 0.0 0.00 0.00 0.00 64 1021.7
20210723073029 59 180 5.2 0.0 0.00 0.00 0.00 63 1021.3
20210723071607 60 180 4.3 0.0 0.00 0.00 0.00 62 1021.3
20210723070027 61 180 4.3 0.0 0.00 0.00 0.00 58 1021.3
20210723064525 62 180 3.5 0.0 0.00 0.00 0.00 56 1021.3
20210723063028 63 180 4.3 0.0 0.00 0.00 0.00 55 1021.3
20210723061528 63 180 4.3 0.0 0.00 0.00 0.00 55 1021.0
20210723060038 64 180 5.2 0.0 0.00 0.00 0.00 54 1021.0
20210723054536 64 180 5.2 0.0 0.00 0.00 0.00 53 1021.0
20210723053033 64 180 4.3 0.0 0.00 0.00 0.00 53 1020.6
20210723050038 65 180 4.3 0.0 0.00 0.00 0.00 51 1020.3
20210723044535 67 180 3.5 0.0 0.00 0.00 0.00 48 1020.3
20210723043028 68 180 3.5 0.0 0.00 0.00 0.00 47 1019.9
20210723041528 69 180 3.5 0.0 0.00 0.00 0.00 44 1019.9
20210723040028 70 180 5.2 0.0 0.00 0.00 0.00 43 1019.6
20210723034528 71 180 5.2 0.0 0.00 0.00 0.00 42 1019.6
20210723033026 71 180 6.1 0.0 0.00 0.00 0.00 42 1019.3
20210723031526 72 180 4.3 0.0 0.00 0.00 0.00 42 1018.9
20210723030031 72 180 5.2 0.0 0.00 0.00 0.00 40 1018.9
20210723024532 72 180 5.2 0.0 0.00 0.00 0.00 40 1018.9
20210723023024 73 180 5.2 0.0 0.00 0.00 0.00 39 1018.6
20210723021526 73 180 4.3 0.0 0.00 0.00 0.00 38 1018.6
20210723020027 74 180 4.3 0.0 0.00 0.00 0.00 38 1018.2
20210723014527 75 180 4.3 0.0 0.00 0.00 0.00 36 1018.2
20210723013029 75 180 6.1 0.0 0.00 0.00 0.00 35 1018.2
20210723011533 76 180 3.5 0.0 0.00 0.00 0.00 35 1018.2
20210723010028 76 180 5.2 0.0 0.00 0.00 0.00 33 1018.2
20210723004531 77 180 6.1 0.0 0.00 0.00 0.00 32 1018.2
20210723003035 77 180 5.2 0.0 0.00 0.00 0.00 34 1018.2
20210723001529 77 180 4.3 0.0 0.00 0.00 0.00 35 1018.2
20210723000027 77 180 2.6 0.0 0.00 0.00 0.00 37 1018.2
20210722234527 78 180 5.2 0.0 0.00 0.00 0.00 37 1018.2
20210722233032 78 180 4.3 0.0 0.00 0.00 0.00 38 1018.2
20210722231530 78 180 6.1 0.0 0.00 0.00 0.00 38 1018.2
20210722230029 78 180 4.3 0.0 0.00 0.00 0.00 38 1018.2
20210722224526 79 180 5.2 0.0 0.00 0.00 0.00 38 1018.6
20210722223026 79 180 4.3 0.0 0.00 0.00 0.00 38 1018.6
20210722221529 80 180 3.5 0.0 0.00 0.00 0.00 39 1018.9
20210722220024 80 180 2.6 0.0 0.00 0.00 0.00 39 1018.9
20210722214539 80 180 2.6 0.0 0.00 0.00 0.00 39 1018.9
20210722213030 79 180 1.7 0.0 0.00 0.00 0.00 39 1018.9
20210722211530 78 180 2.6 0.0 0.00 0.00 0.00 39 1019.3
20210722210029 78 180 2.6 0.0 0.00 0.00 0.00 39 1019.3
20210722204527 78 180 3.5 0.0 0.00 0.00 0.00 39 1019.6
20210722203037 77 180 1.7 0.0 0.00 0.00 0.00 38 1019.6
20210722201605 77 180 2.6 0.0 0.00 0.00 0.00 39 1019.9
20210722200030 76 180 1.7 0.0 0.00 0.00 0.00 40 1019.9
20210722194528 74 180 2.6 0.0 0.00 0.00 0.00 41 1020.3
20210722193028 74 180 4.3 0.0 0.00 0.00 0.00 42 1020.3
20210722191532 73 180 4.3 0.0 0.00 0.00 0.00 42 1020.3
20210722190032 72 180 3.5 0.0 0.00 0.00 0.00 43 1020.6
20210722184524 72 180 3.5 0.0 0.00 0.00 0.00 43 1020.6
20210722183027 71 180 4.3 0.0 0.00 0.00 0.00 44 1020.6
20210722181525 71 180 2.6 0.0 0.00 0.00 0.00 44 1020.6
20210722180024 71 180 2.6 0.0 0.00 0.00 0.00 48 1021.0
20210722174529 71 180 1.7 0.0 0.00 0.00 0.00 49 1021.0
20210722173031 69 180 0.9 0.0 0.00 0.00 0.00 53 1021.0
20210722171539 67 180 1.7 0.0 0.00 0.00 0.00 56 1021.3
20210722170026 65 180 1.7 0.0 0.00 0.00 0.00 58 1021.3
20210722164526 64 180 2.6 0.0 0.00 0.00 0.00 61 1021.7
20210722163034 63 180 2.6 0.0 0.00 0.00 0.00 63 1021.7